Regional Weather Roundup
Issued by NWS

Home | Current Version | Previous Version | Text Only | Print | Product List | Glossary Off
Versions: 1 2 3 4 5 6 7 8 9 10 11 12 13 14 15 16 17 18 19 20 21 22 23 24 25 26 27 28 29 30 31 32 33 34 35 36 37 38 39 40 41 42 43 44 45 46 47 48 49 50

000
ASUS43 KMPX 171501
RWRMN
WEATHER ROUNDUP FOR MINNESOTA
NATIONAL WEATHER SERVICE TWIN CITIES/CHANHASSEN MN
1000 AM CDT THU AUG 17 2017


NOTE: "FAIR" INDICATES FEW OR NO CLOUDS BELOW 12,000 FEET WITH NO
SIGNIFICANT WEATHER AND/OR OBSTRUCTIONS TO VISIBILITY. N/A MEANS
CURRENT SKY AND/OR WEATHER CONDITIONS ARE NOT AVAILABLE.

MNZ060>063-068>070-171600-
   Twin Cities Metro

CITY           SKY/WX    TMP DP  RH WIND       PRES   REMARKS
TWIN CITIES    LGT RAIN  67  64  90 NW15G25   29.58R
ST PAUL        CLOUDY    70  67  90 NW14      29.57R
CRYSTAL        LGT RAIN  65  62  90 NW16G26   29.58R FOG
BLAINE         LGT RAIN  66  66 100 NW18      29.59R FOG
LAKEVILLE      CLOUDY    64  64 100 NW12G17   29.60R
EDEN PRAIRIE   CLOUDY    67  63  87 N16G25    29.59R
SOUTH ST PAUL  CLOUDY    68  68  99 W8        29.57R
LAKE ELMO      CLOUDY    70  66  88 NW7       29.57R
$$
MNZ001>005-007-008-013>017-022>024-027-028-171600-
   Northwest Minnesota

CITY           SKY/WX    TMP DP  RH WIND       PRES   REMARKS
BEMIDJI        CLOUDY    61  60  95 N10       29.78S
HALLOCK        CLOUDY    64  61  88 CALM      29.85R
ROSEAU         PTSUNNY   63  57  82 NE7       29.83S
WARROAD        CLOUDY    64  61  88 NE7       29.82F
THIEF RVR FALL PTSUNNY   64  61  88 N13       29.84R
CROOKSTON      MOSUNNY   64  61  88 N10       29.83F
FOSSTON        CLOUDY    61  59  94 N12G18    29.82R
DETROIT LAKES  CLOUDY    63  59  88 N10G21    29.81R
MOORHEAD       CLOUDY    64  61  88 N13G23    29.83S
PARK RAPIDS    CLOUDY    63  60  90 N16       29.77R FOG
MAHNOMEN       CLOUDY    62  60  93 N12G20    29.81R
$$
MNZ006-009>011-018-025>026-171600-
   North Central Minnesota

CITY           SKY/WX    TMP DP  RH WIND       PRES   REMARKS
BAUDETTE       CLOUDY    63  60  90 N8        29.80S
FLAG ISLAND    CLOUDY    64  57  77 N3        29.81S
INTL FALLS     LGT RAIN  60  58  92 NE6       29.78R
WASKISH        CLOUDY    61  59  94 NE6       29.79S
BIG FORK       LGT RAIN  61  59  94 N3        29.76R
LONGVILLE      DRIZZLE   61  61 100 N7        29.74R
GRAND RAPIDS   LGT RAIN  61  59  93 N9        29.74R
CRANE LAKE     RAIN      57  57 100 N5        29.76S
ORR            LGT RAIN  59  55  88 CALM      29.72S
COOK           HVY RAIN  59  59 100 N5        29.73S
WALKER         CLOUDY    60  59  96 N7        29.76R
$$
MNZ012-019>021-037-171600-
   Northeast Minnesota

CITY           SKY/WX    TMP DP  RH WIND       PRES   REMARKS
DULUTH         LGT RAIN  60  60 100 N8        29.65R FOG
ELY            HVY RAIN  59  57  94 N5        29.70F
HIBBING        HVY RAIN  58  57  97 N9        29.70S FOG
EVELETH        DRIZZLE   60  57  89 N7        29.71S
DULUTH HARBOR  LGT RAIN  63  61  94 NE24G30   29.62S
SILVER BAY     DRIZZLE   63  61  94 NE6G17    29.62F
GRAND MARAIS     N/A     65  61  87 NE9G17    29.63F
$$
MNZ029>031-032-039>041-046>048-054>057-064-171600-
   West Central Minnesota

CITY           SKY/WX    TMP DP  RH WIND       PRES   REMARKS
FERGUS FALLS   CLOUDY    63  63 100 N16G22    29.80R
WHEATON        CLOUDY    63  57  82 NW18G26   29.85R
MORRIS         CLOUDY    63  63 100 NW20      29.79R FOG
ALEXANDRIA     CLOUDY    65  63  93 NW17G23   29.78R
ELBOW LAKE     CLOUDY    61  61 100 NW12G20   29.81R FOG
WADENA         CLOUDY    64  64 100 N14G22    29.76R
GLENWOOD       MOSUNNY   66  64  94 NW13G20   29.77R
APPLETON       CLOUDY    64  61  88 NW17G23   29.79R
BENSON         CLOUDY    64  63  94 N16       29.79R
ORTONVILLE     CLOUDY    63  59  88 MISG      29.82R
MADISON        CLOUDY    64  64 100 NW17G24   29.82R
WILLMAR        PTSUNNY   66  64  94 NW16G23   29.76R
$$
MNZ033>034-036-042>043-049>051-058-059-171600-
   Central Minnesota

CITY           SKY/WX    TMP DP  RH WIND       PRES   REMARKS
ST CLOUD       LGT RAIN  63  63 100 N15G24    29.66R
SAUK CENTRE    CLOUDY    66  62  88 NW13G20   29.74R
PAYNESVILLE    CLOUDY    66  63  91 NW14G21   29.73R
AITKIN         CLOUDY    61  57  88 N8        29.68S
PINE RIVER     CLOUDY    61  57  88 N8        29.77R
BRAINERD       CLOUDY    63  60  90 N17       29.71R
STAPLES        CLOUDY    63  61  94 N12       29.74R
LONG PRAIRIE   CLOUDY    64  61  88 NW9G16    29.74R
LITTLE FALLS   CLOUDY    61  61 100 NW8       29.70R
LITCHFIELD     DRIZZLE   66  64  94 NW18G26   29.71R
BUFFALO        CLOUDY    64  60  87 NW12G18   29.65R
MAPLE LAKE     CLOUDY    65  63  94 NW10G22   29.66R
HUTCHINSON     CLOUDY    67  64  90 NW14G23   29.70R
$$
MNZ037-044-045-052-053-171600-
   East Central Minnesota

CITY           SKY/WX    TMP DP  RH WIND       PRES   REMARKS
PRINCETON      CLOUDY    64  63  94 N14G23    29.63R
MORA           CLOUDY    59  59 100 N8G20     29.65R FOG
RUSH CITY      HVY RAIN  63  61  94 N10G18    29.61R
MOOSE LAKE     LGT RAIN  59  57  94 N8G17     29.63R
HINCKLEY       CLOUDY    63  63 100 N10G16    29.62R
CLOQUET        DRIZZLE   61  57  88 N9        29.65S
MCGREGOR       CLOUDY    61  59  94 N9        29.68R
$$
MNZ071>073-080-081-089-090-097-098-171600-
   Southwest Minnesota

CITY           SKY/WX    TMP DP  RH WIND       PRES   REMARKS
MONTEVIDEO     CLOUDY    63  63 100 N15G22    29.79R FOG
GRANITE FALLS  CLOUDY    65  64  96 W15G21    29.80R FOG
CANBY          CLOUDY    65  60  86 W15G24    29.84R
MARSHALL       CLOUDY    62  60  93 NW16G24   29.81R
REDWOOD FALLS  CLOUDY    65  61  87 NW18G25   29.75R
OLIVIA         CLOUDY    64  61  88 NW18G28   29.74R
PIPESTONE      CLOUDY    64  59  82 NW15G25   29.86R
WINDOM         CLOUDY    64  61  88 W22G29    29.80R
WORTHINGTON    CLOUDY    63  60  90 W17       29.84R
JACKSON        CLOUDY    64  61  88 W18G25    29.81R
TRACY          CLOUDY    63  62  97 NW15G24   29.82R
SLAYTON        CLOUDY    61  56  82 NW16G24   29.83R
$$
MNZ065>067-074>077-082>085-091>093-171600-
   South Central Minnesota

CITY           SKY/WX    TMP DP  RH WIND       PRES   REMARKS
MANKATO        LGT RAIN  66  63  90 NW21G28   29.68R
NEW ULM        PTSUNNY   68  63  83 NW23G31   29.71R
ST JAMES       CLOUDY    66  63  88 W17G24    29.75R
FAIRMONT       CLOUDY    68  63  84 W20       29.76R
GLENCOE        DRIZZLE   66  65  99 NW16G23   29.66R
FARIBAULT      CLOUDY    64  63  94 W14G23    29.63R
OWATONNA       DRIZZLE   64  63  94 W17G24    29.64R
WASECA         DRIZZLE   63  61  94 W13G18    29.68R
ALBERT LEA     RAIN      66  66 100 W13G23    29.67R
$$
MNZ078>079-086>088-094>096-171600-
   Southeast Minnesota

CITY           SKY/WX    TMP DP  RH WIND       PRES   REMARKS
ROCHESTER      LGT RAIN  64  64 100 W17G29    29.62R FOG
RED WING       CLOUDY    70  66  88 NW10      29.54R
STANTON        CLOUDY    68  65  89 W14G20    29.58R
DODGE CENTER   CLOUDY    64  63  94 W18G25    29.63R FOG
WINONA         CLOUDY    70  63  78 W10G21    29.57R
AUSTIN         CLOUDY    64  63  94 W15G22    29.66R FOG
PRESTON        CLOUDY    65  62  91 W17G23    29.64R FOG
$$
ABBREVIATIONS USED IN REMARKS
   TC - TEMPERATURES IN CELSIUS
  WCI - WIND CHILL INDEX
   HX - HEAT INDEX
  VSB - VISIBILITY
$$




USA.gov is the U.S. government's official web portal to all federal, state and local government web resources and services.